Simultaneous Nadir Overpasses (SNOs) Predictions

Prediction of SNOs between GOES-17 and NOAA-20 Satellite Orbit:

Table of predicted SNOs for the next 14.0 days since TLE Epoch: 1/27/2024
Index Date Time (GOES-17) GOES-17 Lat,Lon NOAA-20 Lat,Lon Distance(km) Time Diff (sec)
1 01/28/2024 08:33:05 0.02,-104.68 0.46,-106.55 213.32 80
2 01/29/2024 08:11:41 0.01,-104.68 -0.59,-102.03 302.85 80
3 01/30/2024 20:33:38 -0.02,-104.65 -0.59,-107.33 304.79 80
4 01/31/2024 20:17:34 -0.01,-104.66 0.40,-102.80 211.67 80
5 02/02/2024 08:39:22 0.02,-104.69 0.79,-108.07 385.26 80
6 02/03/2024 08:17:59 0.02,-104.69 -0.26,-103.55 130.86 80
7 02/04/2024 20:39:55 -0.02,-104.65 -0.97,-108.84 477.49 80
8 02/05/2024 20:23:51 -0.02,-104.65 0.03,-104.31 38.62 80
9 02/08/2024 08:26:55 0.03,-104.68 0.09,-105.06 43.03 80
10 02/09/2024 08:05:31 0.02,-104.67 -0.91,-100.52 472.74 80
